Weather History for Manitowoc, WI

Change the Weather History Date:

Sunday, January 20, 2013

  Actual Average Record
Temperature  
Mean Temperature 10 °F -  
Max Temperature 15 °F 28 °F 43 °F (1968)
Min Temperature 6 °F 11 °F -25 °F (1985)
Degree Days  
Heating Degree Days 54    
Moisture  
Dew Point -3 °F    
Average Humidity 56    
Maximum Humidity 67    
Minimum Humidity 45    
Precipitation  
Precipitation 0.00 in - - ()
Sea Level Pressure  
Sea Level Pressure 30.13 in    
Wind  
Wind Speed 20 mph (West)    
Max Wind Speed 34 mph    
Max Gust Speed 45 mph    
Visibility 10 miles    
Events      
Averages and records for this station are not official NWS values.
T = Trace of Precipitation, MM = Missing Value Source: NWS Daily Summary

Daily Weather History Graph

Daily Weather History Graph

Search for Another Location

Airport:

Trip Planner

Search our weather history database for the weather conditions in past years. The results will help you decide how hot, cold, wet, or windy it might be!

Date:

Astronomy

Jan. 20, 2013 Rise Set
Actual Time 7:19 AM CST 4:44 PM CST
Civil Twilight 6:47 AM CST 5:16 PM CST
Nautical Twilight 6:12 AM CST 5:52 PM CST
Astronomical Twilight 5:37 AM CST 6:26 PM CST
Moon 11:46 AM CST (1/20) 1:50 AM CST (1/20)
Length of Visible Light 10h 29m
Length of Day
9h 25m
Waxing Gibbous, 66% of the Moon is Illuminated
Jan 20
Waxing Gibbous
Jan 26
Full
Feb 3
Last Quarter
Feb 10
New
Feb 17
First Quarter

Hourly Weather History & Observations

Time (CST) Temp. Windchill Dew Point Humidity Pressure Visibility Wind Dir Wind Speed Gust Speed Precip Events Conditions
12:15 AM 15.8 °F -3.7 °F 3.2 °F 58% 29.82 in 10.0 mi WNW 27.6 mph 44.9 mph N/A   Mostly Cloudy
12:35 AM 14.0 °F -6.8 °F -2.2 °F 49% 29.84 in 10.0 mi West 29.9 mph 39.1 mph N/A   Partly Cloudy
12:55 AM 12.2 °F -8.9 °F 1.4 °F 62% 29.86 in 10.0 mi WNW 28.8 mph 40.3 mph N/A   Mostly Cloudy
1:15 AM 12.2 °F -9.9 °F -0.4 °F 57% 29.88 in 10.0 mi West 32.2 mph 43.7 mph N/A   Mostly Cloudy
1:35 AM 10.4 °F -13.0 °F -2.2 °F 57% 29.90 in 10.0 mi WNW 34.5 mph 44.9 mph N/A   Mostly Cloudy
1:55 AM 10.4 °F -10.3 °F -5.8 °F 48% 29.93 in 10.0 mi WNW 25.3 mph 39.1 mph N/A   Clear
2:15 AM 10.4 °F -8.6 °F -4.0 °F 52% 29.96 in 10.0 mi WNW 20.7 mph 36.8 mph N/A   Clear
2:35 AM 10.4 °F -9.1 °F -4.0 °F 52% 29.97 in 10.0 mi WNW 21.9 mph 34.5 mph N/A   Clear
2:55 AM 10.4 °F -8.2 °F -4.0 °F 52% 29.99 in 10.0 mi WNW 19.6 mph 32.2 mph N/A   Clear
3:15 AM 10.4 °F -8.2 °F -4.0 °F 52% 30.00 in 10.0 mi WNW 19.6 mph 32.2 mph N/A   Clear
3:35 AM 10.4 °F -9.9 °F -0.4 °F 62% 30.01 in 10.0 mi WNW 24.2 mph 31.1 mph N/A   Clear
3:55 AM 8.6 °F -11.0 °F -0.4 °F 67% 30.02 in 10.0 mi WNW 20.7 mph 28.8 mph N/A   Clear
4:15 AM 8.6 °F -11.4 °F -5.8 °F 52% 30.03 in 10.0 mi WNW 21.9 mph 28.8 mph N/A   Clear
4:35 AM 8.6 °F -10.0 °F -4.0 °F 57% 30.04 in 10.0 mi WNW 18.4 mph 28.8 mph N/A   Clear
4:55 AM 8.6 °F -10.5 °F -5.8 °F 52% 30.06 in 10.0 mi WNW 19.6 mph 27.6 mph N/A   Clear
5:15 AM 8.6 °F -9.5 °F -4.0 °F 57% 30.07 in 10.0 mi WNW 17.3 mph 27.6 mph N/A   Clear
5:35 AM 8.6 °F -11.9 °F -4.0 °F 57% 30.09 in 10.0 mi West 23.0 mph 28.8 mph N/A   Clear
5:55 AM 8.6 °F -11.4 °F -2.2 °F 62% 30.11 in 10.0 mi West 21.9 mph 26.5 mph N/A   Clear
6:15 AM 8.6 °F -8.3 °F -2.2 °F 62% 30.12 in 10.0 mi West 15.0 mph 27.6 mph N/A   Clear
6:35 AM 6.8 °F -11.8 °F -2.2 °F 67% 30.14 in 10.0 mi West 17.3 mph 26.5 mph N/A   Clear
6:55 AM 6.8 °F -12.9 °F -2.2 °F 67% 30.14 in 10.0 mi West 19.6 mph 26.5 mph N/A   Clear
7:15 AM 6.8 °F -13.4 °F -2.2 °F 67% 30.15 in 10.0 mi West 20.7 mph 27.6 mph N/A   Clear
7:35 AM 6.8 °F -12.4 °F -2.2 °F 67% 30.16 in 10.0 mi West 18.4 mph 24.2 mph N/A   Clear
7:55 AM 6.8 °F -12.4 °F -2.2 °F 67% 30.16 in 10.0 mi West 18.4 mph 24.2 mph N/A   Clear
8:15 AM 6.8 °F -10.7 °F -2.2 °F 67% 30.18 in 10.0 mi WNW 15.0 mph 24.2 mph N/A   Clear
8:35 AM 6.8 °F -12.9 °F -4.0 °F 61% 30.20 in 10.0 mi West 19.6 mph 27.6 mph N/A   Clear
8:55 AM 6.8 °F -11.3 °F -2.2 °F 67% 30.21 in 10.0 mi WNW 16.1 mph 27.6 mph N/A   Clear
9:15 AM 8.6 °F -10.0 °F -2.2 °F 62% 30.22 in 10.0 mi West 18.4 mph 27.6 mph N/A   Clear
9:35 AM 8.6 °F -8.3 °F -2.2 °F 62% 30.23 in 10.0 mi WNW 15.0 mph - N/A   Clear
9:55 AM 8.6 °F -8.9 °F -2.2 °F 62% 30.23 in 10.0 mi West 16.1 mph 20.7 mph N/A   Clear
10:15 AM 8.6 °F -9.5 °F -2.2 °F 62% 30.23 in 10.0 mi West 17.3 mph 21.9 mph N/A   Clear
10:35 AM 8.6 °F -7.7 °F -2.2 °F 62% 30.23 in 10.0 mi WNW 13.8 mph 20.7 mph N/A   Clear
10:55 AM 8.6 °F -8.9 °F -2.2 °F 62% 30.23 in 10.0 mi West 16.1 mph - N/A   Clear
11:15 AM 10.4 °F -6.6 °F -2.2 °F 57% 30.22 in 10.0 mi West 16.1 mph 21.9 mph N/A   Clear
11:35 AM 10.4 °F -6.0 °F -0.4 °F 62% 30.21 in 10.0 mi West 15.0 mph 19.6 mph N/A   Clear
12:15 PM 10.4 °F -5.4 °F -0.4 °F 62% 30.21 in 10.0 mi West 13.8 mph 26.5 mph N/A   Clear
12:35 PM 12.2 °F -4.3 °F -2.2 °F 53% 30.20 in 10.0 mi West 16.1 mph 24.2 mph N/A   Clear
12:55 PM 12.2 °F -5.8 °F -2.2 °F 53% 30.20 in 10.0 mi West 19.6 mph 24.2 mph N/A   Clear
1:15 PM 12.2 °F -4.8 °F -2.2 °F 53% 30.20 in 10.0 mi West 17.3 mph 24.2 mph N/A   Clear
1:35 PM 12.2 °F -4.3 °F -2.2 °F 53% 30.19 in 10.0 mi West 16.1 mph 26.5 mph N/A   Clear
1:55 PM 12.2 °F -4.3 °F -2.2 °F 53% 30.19 in 10.0 mi West 16.1 mph 24.2 mph N/A   Clear
2:15 PM 12.2 °F -3.7 °F -2.2 °F 53% 30.19 in 10.0 mi West 15.0 mph - N/A   Clear
2:35 PM 12.2 °F -3.7 °F -2.2 °F 53% 30.19 in 10.0 mi West 15.0 mph 21.9 mph N/A   Clear
2:55 PM 12.2 °F -4.3 °F -2.2 °F 53% 30.19 in 10.0 mi West 16.1 mph - N/A   Clear
3:15 PM 12.2 °F -3.7 °F -5.8 °F 45% 30.20 in 10.0 mi West 15.0 mph 19.6 mph N/A   Clear
3:35 PM 12.2 °F -3.1 °F -5.8 °F 45% 30.20 in 10.0 mi West 13.8 mph - N/A   Mostly Cloudy
3:55 PM 12.2 °F -1.0 °F -5.8 °F 45% 30.19 in 10.0 mi West 10.4 mph 17.3 mph N/A   Overcast
4:15 PM 12.2 °F -4.8 °F -4.0 °F 48% 30.20 in 10.0 mi West 17.3 mph 24.2 mph N/A   Overcast
4:35 PM 12.2 °F -0.2 °F -5.8 °F 45% 30.20 in 10.0 mi West 9.2 mph 17.3 mph N/A   Mostly Cloudy
4:55 PM 10.4 °F -4.1 °F -4.0 °F 52% 30.19 in 10.0 mi West 11.5 mph - N/A   Partly Cloudy
5:15 PM 10.4 °F -4.1 °F -5.8 °F 48% 30.20 in 10.0 mi West 11.5 mph - N/A   Partly Cloudy
5:35 PM 10.4 °F -2.4 °F -4.0 °F 52% 30.19 in 10.0 mi West 9.2 mph - N/A   Clear
5:55 PM 10.4 °F -1.5 °F -4.0 °F 52% 30.19 in 10.0 mi West 8.1 mph - N/A   Clear
6:15 PM 10.4 °F -0.4 °F -2.2 °F 57% 30.19 in 10.0 mi West 6.9 mph - N/A   Clear
6:35 PM 10.4 °F -4.1 °F -2.2 °F 57% 30.19 in 10.0 mi West 11.5 mph - N/A   Clear
6:55 PM 10.4 °F -3.3 °F -2.2 °F 57% 30.19 in 10.0 mi West 10.4 mph - N/A   Scattered Clouds
7:15 PM 10.4 °F -3.3 °F -2.2 °F 57% 30.19 in 10.0 mi West 10.4 mph - N/A   Overcast
7:35 PM 10.4 °F -1.5 °F -4.0 °F 52% 30.19 in 10.0 mi West 8.1 mph - N/A   Overcast
7:55 PM 10.4 °F -3.3 °F -4.0 °F 52% 30.18 in 10.0 mi West 10.4 mph - N/A   Overcast
8:15 PM 10.4 °F -4.8 °F -4.0 °F 52% 30.17 in 10.0 mi West 12.7 mph 18.4 mph N/A   Overcast
8:35 PM 10.4 °F -5.4 °F -5.8 °F 48% 30.17 in 10.0 mi West 13.8 mph - N/A   Overcast
8:55 PM 10.4 °F -4.1 °F -5.8 °F 48% 30.17 in 10.0 mi West 11.5 mph - N/A   Mostly Cloudy
9:15 PM 10.4 °F -4.1 °F -4.0 °F 52% 30.17 in 10.0 mi WNW 11.5 mph - N/A   Overcast
9:35 PM 8.6 °F -7.7 °F -5.8 °F 52% 30.16 in 10.0 mi WNW 13.8 mph - N/A   Mostly Cloudy
9:55 PM 8.6 °F -7.0 °F -5.8 °F 52% 30.15 in 10.0 mi WNW 12.7 mph - N/A   Partly Cloudy
10:15 PM 8.6 °F -7.0 °F -5.8 °F 52% 30.15 in 10.0 mi WNW 12.7 mph - N/A   Clear
10:35 PM 8.6 °F -7.0 °F -5.8 °F 52% 30.15 in 10.0 mi WNW 12.7 mph 19.6 mph N/A   Clear
10:55 PM 6.8 °F -11.3 °F -5.8 °F 56% 30.14 in 10.0 mi WNW 16.1 mph 19.6 mph N/A   Clear
11:15 PM 6.8 °F -8.6 °F -5.8 °F 56% 30.14 in 10.0 mi WNW 11.5 mph - N/A   Partly Cloudy
11:35 PM 6.8 °F -9.3 °F -5.8 °F 56% 30.13 in 10.0 mi WNW 12.7 mph - N/A   Mostly Cloudy
11:55 PM 6.8 °F -9.3 °F -5.8 °F 56% 30.12 in 10.0 mi WNW 12.7 mph 20.7 mph N/A   Overcast